Location: Maynard F. Jordan Observatory
(44.9000°N, 68.6700°W)
Time: 20:19:33
(UTC-04:00)

Cosmos 2297 Rocket - Visible Passes

Search period start: 01 October 2014 00:00
Search period end: 11 October 2014 00:00
Orbit: 839 x 844 km, 71.0° (Epoch: 30 September)

Date Brightness Start Highest point End Pass type
(mag) Time Alt. Az. Time Alt. Az. Time Alt. Az.
01 Oct 3.3 20:10:38 10° NW 20:15:55 42° WSW 20:21:11 10° S visible
02 Oct 3.3 19:55:35 10° NW 20:00:55 44° WSW 20:06:14 10° S visible
03 Oct 3.2 19:40:32 10° NW 19:45:56 46° WSW 19:51:17 10° S visible
04 Oct 3.2 19:25:30 10° NW 19:30:56 49° WSW 19:36:20 10° S visible
05 Oct 3.1 19:10:28 10° NW 19:15:56 51° WSW 19:21:22 10° S visible
06 Oct 3.1 18:55:26 10° NW 19:00:56 54° WSW 19:06:24 10° S visible
07 Oct 3.0 18:40:24 10° NNW 18:45:56 57° WSW 18:51:26 10° S visible
08 Oct 2.9 18:25:22 10° NNW 18:30:56 60° WSW 18:36:28 10° S visible
